events-overview

 

Vulcan Run 2015 - Overall Female Results

** Results are for the private use of participants and are the Intellectual Property of Set Up Events. Unauthorized use of these results is prohibited.

Place Bib NAME Age Sex CITY/STATE TeamName GunTime GunPace TagTime TagPace
1901GALINA IVANOVA39FHEBRON KY 00:33:4500:05:2700:33:4500:05:27
23GISELA OLALDE GRANADOS31FHERMITAGE TN 00:35:0800:05:4000:35:0800:05:40
31CARMEN HUSSAR38FBIRMINGHAM AL 00:35:1600:05:4200:35:1600:05:42
44VICTORIA VORONKO24FGREENVILLE SC 00:36:2200:05:5200:36:2200:05:52
510ELENA KIDD29FHOMEWOOD ALTHE TRAK SHAK 100:36:3700:05:5500:36:3700:05:55
62JUSTYNA MUDY-MADER31FHUNTSVILLE ALRUNNINGLANE00:36:5800:05:5800:36:5800:05:58
71157FLORENCE MOSE23FBIRMINGHAM AL 00:39:1900:06:2100:39:1900:06:21
8690LAUREN SCOTT24FBIRMINGHAM AL 00:39:2700:06:2200:39:2700:06:22
97ELIZABETH LASETER27FNEW YORK NY 00:39:3000:06:2300:39:3000:06:23
10456SARAH KLUTH32FBIRMINGHAM ALCADENCE RUN COACHING WHIT00:39:3800:06:2400:39:3800:06:24
118JENNIFER DUNN25FBIRMINGHAM AL 00:41:5400:06:4600:41:5400:06:46
12344RACHEL HAGUES32FBIRMINGHAM ALCADENCE RUN COACHING WHIT00:42:2200:06:5000:42:2200:06:50
131137BRITTNEY HARRISON25FBIRMINGHAM AL 00:42:3600:06:5300:42:3600:06:53
14638SARAH PORTELLA31FHOOVER ALTHE TRAK SHAK 100:42:4600:06:5400:42:4600:06:54
15376MELANIE HILDEBRANDT27FBIRMINGHAM AL 00:43:2200:07:0000:43:1600:06:59
16324JOY GONZALEZ33FBIRMINGHAM AL 00:43:2400:07:0000:43:2400:07:00
17337MISTY GRIFFIN41FMOODY AL 00:43:5300:07:0500:43:4600:07:04
181145ALLISON PHEARS38FATLANTA GA 00:43:5900:07:0600:43:5900:07:06
19264KRISTI DUDLEY40FBIRMINGHAM AL 00:44:1700:07:0900:44:1700:07:09
201134MARY JO SCHMALZ49FBIRMINGHAM ALTHE TRAK SHAK 200:44:5600:07:1500:44:3800:07:12
21112JULIE CROUSHORN43FHOOVER AL 00:45:1700:07:1900:45:0700:07:17
22651MEGHAN RALPH27FBIRMINGHAM AL 00:45:3000:07:2100:45:3000:07:21
23495LEIGH ELLEN LOGAN24FBIRMINGHAM ALMUGGLE HUSTLE00:45:3300:07:2100:45:1600:07:18
24722CHRISTIAN SMITH24FBIRMINGHAMIRMI AL 00:45:5300:07:2400:45:3700:07:22
251098NELLE DOUGLAS27FHARRISONBURG VA 00:45:5600:07:2500:45:4900:07:24
26992REBECCA PHILLIPS32FBIRMINGHAM AL 00:46:0400:07:2600:45:5300:07:24
27692DEBI SECOR47FJOHNSON CITY TN 00:46:3100:07:3100:46:1900:07:29
28212JULES CONNELLY24FBIRMINGHAM ALTHE TRAK SHAK 200:46:5100:07:3400:46:4500:07:33
2921ALISON HOOVER49FHOOVER AL 00:46:5600:07:3500:46:5600:07:35
3087KRISTIN BEASON40FASHVILLE AL 00:47:3400:07:4100:47:2400:07:39
PlaceBibNAMEAgeSexCITY/STATETeamNameGunTimeGunPaceTagTimeTagPace
311057MARY SCOTT PEARSON37FHOMEWOOD AL 00:47:5100:07:4400:47:3800:07:41
3248S RHEAGAN ALEXANDER36FBIRMINGHAM AL 00:47:5300:07:4400:47:4600:07:43
33148THERESA BURST57FBIRMINGHAM AL 00:47:5300:07:4400:47:4300:07:42
34975CHRISTY HUFFSTUTLER28FHELENA AL 00:47:5900:07:4500:47:4400:07:42
35423CARLA JOHNSON35FVESTAVIA AL 00:48:0500:07:4600:47:5500:07:44
36217LAUREN CORNELIUS26FONEONTA AL 00:48:1400:07:4700:47:5500:07:44
37435SARA JOYCE28FLEEDS AL 00:48:2100:07:4800:48:0800:07:46
38916HALEY MONTGOMERY34FBIRMINGHAM AL 00:48:2300:07:4900:48:0800:07:46
39247ANNE DEBARDELEBEN33FMOUNTAIN BROOK AL 00:48:2800:07:4900:48:0800:07:46
40157DANA CAMPBELL35FBIRMINGHAM AL 00:48:3000:07:5000:48:1500:07:47
41982JAMYE LITTY39FBIRMINGHAM AL 00:48:3300:07:5000:48:2300:07:49
42667MYRNA RODRIGUEZ28FBIRMINGHAM AL 00:48:4500:07:5200:48:3800:07:51
43152RACHEL BYRD26FBIRMINGHAM AL 00:49:0700:07:5600:49:0000:07:55
44242AMY DAVIS26FBIRMINGHAM AL 00:49:1600:07:5700:49:1000:07:56
4561JENNIFER ANDRESS47FBIRMINGHAM AL 00:49:2100:07:5800:49:0700:07:56
46181MELISSA CLARK37FVESTAVIA AL 00:49:2700:07:5900:49:2000:07:58
47755JAMIE THOMAS54FBIRMINGHAM AL 00:49:3000:07:5900:49:2200:07:58
48754BETHANY TERRELL36FBIRMINGHAM AL 00:49:3500:08:0000:49:2600:07:59
49444MICHELLE KEHRES17FHUNTSVILLE AL 00:49:5400:08:0300:49:3600:08:00
501042LAUREN HOWELL23FBIRMINGHAM AL 00:50:0800:08:0600:49:5400:08:03
511102JULIA BACHRACH42FHOOVER AL 00:50:2200:08:0800:50:2200:08:08
5250BECKY ALLEN48FCUMMING GA 00:50:2900:08:0900:50:2200:08:08
53549PAMELA MILLER40FSTERRETT AL 00:50:3700:08:1000:50:2400:08:08
54911KATIE MCELROY28FBIRMINGHAM AL 00:51:1700:08:1700:50:5900:08:14
55531MEGAN MCCORD27FBIRMINGHAM AL 00:51:1800:08:1700:50:5600:08:13
56821AMY WEBER56FBIRMINGHAM AL 00:51:1900:08:1700:51:0500:08:15
57927TOVAH ROSE35FHOOVER AL 00:51:2500:08:1800:50:5100:08:12
58114LINDA BOWEN35FBIRMINGHAM AL 00:51:3200:08:1900:51:1400:08:16
59878GENA CASEY26FBIRMINGHAM AL 00:51:3900:08:2000:51:1900:08:17
601131MIMI SEELEY25FHOOVER AL 00:51:4800:08:2200:51:3300:08:19
61735EMILY STEFANOV29FBIRMINGHAM AL 00:51:5300:08:2300:51:3200:08:19
PlaceBibNAMEAgeSexCITY/STATETeamNameGunTimeGunPaceTagTimeTagPace
62628BIJOU PHILLIPS12FBIRMINGHAM AL 00:52:0800:08:2500:51:5200:08:22
63210KAMISHA COLVIN39FMOBILE AL 00:52:1400:08:2600:51:4400:08:21
64437STACY KADLE53FHOMEWOOD AL 00:52:1900:08:2700:52:0300:08:24
65307MEREDITH GEORGE35FCALERA AL 00:52:2900:08:2800:52:1600:08:26
66532LISA MCCORMICK36FHOOVER AL 00:52:3200:08:2900:52:2200:08:27
67772LAURIE TISDALE36FBIRMINGHAM AL 00:52:4200:08:3000:52:2500:08:28
68682LISA RUTLEDGE42FONEONTA AL 00:53:0800:08:3500:52:5600:08:33
69203JENNIFER COLE43FHOOVER AL 00:53:1300:08:3500:53:0300:08:34
70432KAT JONES34FBIRMINGHAM AL 00:53:1400:08:3600:53:1400:08:36
71285STEPHANIE FARRINGTON44FBIRMINGHAM AL 00:53:1800:08:3600:53:0100:08:34
721071LILIAN WAWERU30FPELHAM AL 00:53:2100:08:3700:53:0500:08:34
73227BETSY CRIBB22FBIRMINGHAM AL 00:53:3500:08:3900:53:0500:08:34
74426RAVEN JOHNSON19FGADSDEN AL 00:53:3600:08:3900:53:2900:08:38
75555SALLY ANN MISSILDINE16FDECATUR AL 00:53:3700:08:3900:53:1000:08:35
76497VANESSA LOLLI28FBIRMINGHAM AL 00:53:4200:08:4000:52:5200:08:32
77553JULIE MISSILDINE52FDECATUR AL 00:53:4400:08:4000:53:1800:08:36
78873KARI BARTLETT38FBIRMINGHAM AL 00:53:5600:08:4200:53:3900:08:40
79786VICKIE VARNES52FPELL CITY AL 00:54:0200:08:4300:53:4900:08:41
80508MARY LYNCH25FBIRMINGHAM AL 00:54:1200:08:4500:53:5600:08:42
8188JULIA BEATTIE24FBIRMINGHAM AL 00:54:1300:08:4500:53:5700:08:43
82563ROSEMARY MOORE50FBIRMINGHAM AL 00:54:1400:08:4500:53:5900:08:43
83520MEGAN MATHEWS28FBIRMINGHAM AL 00:54:1600:08:4600:53:5500:08:42
84595COURTNEY OBER28FHOOVER AL 00:54:1700:08:4600:53:5700:08:42
85800JENNIFER WALKER-JOURNEY48FHOMEWOOD AL 00:54:2100:08:4600:54:0500:08:44
86995ANNE RANDALL34FBIRMINGHAM AL 00:54:3700:08:4900:54:1800:08:46
87319SARAH GILL33FBIRMINGHAM AL 00:54:4000:08:4900:54:0100:08:43
88828ANJA WEST39FMCCALLA AL 00:54:4100:08:5000:54:2800:08:48
89659EMILY RICHEY25FTUSCALOOSA AL 00:54:4200:08:5000:54:0900:08:44
90251JEANIE DENNIS47FHELENA AL 00:54:5400:08:5200:54:4300:08:50
91910LAUREN MCCURDY29FBIRMINGHAM AL 00:54:5400:08:5200:54:5400:08:52
921139VALERIE ESPOSITO BROCK49FHELENA AL 00:54:5600:08:5200:54:2600:08:47
PlaceBibNAMEAgeSexCITY/STATETeamNameGunTimeGunPaceTagTimeTagPace
931010LARA WALTERS43FVESTAVIA HILLS AL 00:55:0000:08:5300:54:4600:08:50
94615JULIE PEARCE43FBIRMINGHAM AL 00:55:0000:08:5300:54:2400:08:47
95652MEGAN RAMSEY29FTRUSSVILLE AL 00:55:0300:08:5300:54:2000:08:46
96235HEATHER DANIELS38FBIRMINGHAM AL 00:55:0800:08:5400:54:0800:08:44
97624VIRGINIA PHILLIPS46FBIRMINGHAM AL 00:55:1500:08:5500:54:5000:08:51
98986MEGAN MCELROY24FATLANTA GA 00:55:1900:08:5600:54:5100:08:51
99840LAURIE WILBANKS50FSYLACAUGA AL 00:55:3200:08:5800:54:4000:08:49
10049DARNELL ALLEN47FBIRMINGHAM ALCADENCE RUN COACHING WHIT00:55:3400:08:5800:54:5800:08:52
1011029SUSAN COMENSKY51FBIRMINGHAM AL 00:55:4400:09:0000:55:4400:09:00
102928MARY CLAIRE RUSHIN28FBIRMINGHAM AL 00:56:0100:09:0300:55:2500:08:57
1031008JESSICA TERRY28FBIRMINGHAM AL 00:56:1400:09:0500:55:4800:09:00
104420LAUREN JEWETT28FMETAIRIE LA 00:56:2400:09:0600:55:2400:08:56
105794CHASSI WADDELL28FFULTONDALE AL 00:56:3000:09:0700:55:5600:09:02
106292TARA FOSTER27FPINSON AL 00:56:4700:09:1000:56:3500:09:08
107742KATRINA STIDHAM40FBIRMINGHAM AL 00:56:5100:09:1100:55:5200:09:01
108762JULIE THOMASSON54FMOBILE AL 00:56:5200:09:1100:56:2700:09:07
109442LISA KEARNEY43FBIRMINGHAM AL 00:56:5500:09:1100:56:5500:09:11
110402JEAN POWERS52FMOBILE AL 00:56:5800:09:1200:56:3300:09:08
1111104FRANCES LYON13FMOUNTAIN BROOK AL 00:57:0000:09:1200:56:4100:09:09
11297GAIL BEVIER62FBIRMINGHAM AL 00:57:0000:09:1200:56:3500:09:08
113279DEBBIE EVANS58FSPRINGVILLE AL 00:57:0100:09:1200:56:2000:09:06
114462KIM LACKEY41FBIRMINGHAM AL 00:57:0200:09:1200:56:2900:09:07
1151006TERRILYN STEPHENS28FBIRMINGHAM AL 00:57:1500:09:1400:56:3600:09:08
1161114HANNAH MACHEMEHL25FBIRMINGHAM AL 00:57:1800:09:1500:56:5600:09:11
11743HEATHER ACKER31FANNISTON AL 00:57:1800:09:1500:56:2500:09:06
118863TRINA YARNALL35FBIRMINGHAM AL 00:57:2100:09:1500:56:4600:09:10
119684MELISSA SANCHEZ28FFULTONDALE AL 00:57:2500:09:1600:56:3200:09:07
120736KELSEY STEIN26FBIRMINGHAM AL 00:57:3700:09:1800:57:0100:09:12
121393TERRY HOOKS63FBIRMINGHAM AL 00:57:3900:09:1800:56:5600:09:11
122834ROBIN WHITE35FVESTAVIA AL 00:57:4100:09:1900:57:2300:09:16
1231132IRELI ALVAREZ31FHOOVER AL 00:57:4200:09:1900:57:1700:09:15
PlaceBibNAMEAgeSexCITY/STATETeamNameGunTimeGunPaceTagTimeTagPace
124313KENDALL GIBSON31FHOOVER AL 00:57:4300:09:1900:57:0700:09:13
125728BRADY SPENCER26FFULTONDALE AL 00:57:5200:09:2000:57:3400:09:18
126215JODY COOMBS65FBIRMINGHAM AL 00:57:5900:09:2200:57:3900:09:18
127856JERALEE WOLF33FBIRMINGHAM AL 00:58:0800:09:2300:57:2300:09:16
128998MOLLY RICHARDSON28FBIRMINGHAM AL 00:58:0900:09:2300:57:2300:09:16
129788JUDY VATELLA54FBIRMINGHAM AL 00:58:1700:09:2400:58:0300:09:22
130166MARIA CECIL47FBIRMINGHAM AL 00:58:1900:09:2500:58:0200:09:22
131431KRISTIE JONES37FHOOVER AL 00:58:3200:09:2700:58:0200:09:22
132859KATHLEEN WOODRUFF29FVESTAVIA HILLS AL 00:58:4400:09:2900:58:2000:09:25
133394KIMBERLY HOOKS40FBIRMINGHAM AL 00:58:5300:09:3000:58:3200:09:27
134465KRISTINA LAFOUNTAIN39FSAINT CLOUD FL 00:59:0200:09:3200:58:1900:09:25
135169JENNIFER CHADHA37FBIRMINGHAM AL 00:59:0400:09:3200:58:4100:09:28
136453SANGAE KIM-PARK58FBIRMINGHAM AL 00:59:1700:09:3400:58:3900:09:28
137582LISA NAGY49FHOMEWOOD AL 00:59:1800:09:3400:58:2800:09:26
138494LAUREN LOCKHART24FHOMEWOOD AL 00:59:2100:09:3500:58:4800:09:29
139616MICHELE PEARSON45FHOOVER AL 00:59:3200:09:3700:58:3400:09:27
140273STACEY ELROD29FMOODY AL 00:59:4000:09:3800:58:3100:09:27
1411077JENNY BARRY49FVESTAVIA AL 00:59:4600:09:3900:59:2700:09:36
142966CAROL DE LA TORRE50FBIRMINGHAM AL 00:59:5000:09:4000:59:1000:09:33
1431161SUSANNE MOORE41FPINSON AL 00:59:5300:09:4000:59:1400:09:34
1441002MELISSA SETON46FBIRMINGHAM AL 00:59:5400:09:4000:59:1300:09:34
145259ROBYN DODSON38FTRUSSVILLE AL 00:59:5800:09:4100:59:1600:09:34
146676JAMIE ROUTMAN31FBIRMINGHAM AL 01:00:0700:09:4200:59:5800:09:41
147117ALLISON BOYD20FASHVILLE AL 01:00:1000:09:4300:59:2900:09:36
148407ALISON HULCHER46FHOOVER AL 01:00:1900:09:4401:00:0000:09:41
149844DEBORAH WILLIAMS55FBESSEMER AL 01:00:2200:09:4500:59:1700:09:34
150356NICKI HARRIS43FBIRMINGHAM AL 01:00:2300:09:4500:59:3800:09:38
151594AMANDA NUTTER32FBIRMINGHAM AL 01:00:2700:09:4500:59:5700:09:41
152561LAUREN MOLINA28FBIRMINGHAM AL 01:00:2700:09:4500:59:5600:09:40
153670BETH ROSE41FBIRMINGHAM AL 01:00:2800:09:4601:00:0500:09:42
154365MARCIE HAYNIE43FBIRMINGHAM AL 01:00:2900:09:4601:00:0000:09:41
PlaceBibNAMEAgeSexCITY/STATETeamNameGunTimeGunPaceTagTimeTagPace
15572ASHLEY BAHR34FHOOVER AL 01:00:2900:09:4600:59:5200:09:40
156262MELISSA DOUGHERTY25FMOODY AL 01:00:3200:09:4600:59:3500:09:37
157384JESSICA HIX32FBESSEMER AL 01:00:3600:09:4700:59:3100:09:36
158908SAMANTHA MCCLUNEY39FCHELSEA AL 01:00:3900:09:4700:59:5500:09:40
159336JENNIFER GREMMELS33FTRUSSVILLE AL 01:00:4000:09:4701:00:4000:09:47
1601082AMY MERK41FBIRMINGHAM AL 01:00:4300:09:4801:00:1300:09:43
161604VICTORIA OTT44FBIRMINGHAM AL 01:00:5200:09:4901:00:1400:09:43
162288JESSICA FLEMING33FVESTAVIA HILLS AL 01:00:5400:09:5001:00:1800:09:44
163122ALLISON BREED27FPORTLAND OR 01:01:1600:09:5301:00:5000:09:49
164332BLAKE GRAY40FHOOVER AL 01:01:1900:09:5401:00:2000:09:44
165566HILARY MORENO45FBIRMINGHAM AL 01:01:5500:10:0001:01:1000:09:52
166118HANNAH BOYD19FASHVILLE AL 01:01:5500:10:0001:01:1300:09:53
167618CHARLOTTE PELZ38FATLANTA GA 01:02:0300:10:0101:01:0400:09:51
168831TARA WHEELER37FFOLEY AL 01:02:0300:10:0101:01:4900:09:59
169925REBEKAH POWELL24FBIRMINGHAM AL 01:02:0600:10:0101:01:3900:09:57
1701048ANA LEWIS40FBIRMINGHAM AL 01:02:1000:10:0201:01:1200:09:53
171102GIA BIVENS38FBIRMINGHAM AL 01:02:2100:10:0401:01:2700:09:55
172765KATHERINE THOMPSON36FBIRMINGHAM AL 01:02:2200:10:0401:02:1100:10:02
173948CISSI BERNHARD57FBIRMINGHAM AL 01:02:2500:10:0401:01:3900:09:57
174648AGYA PUDNER35FHOMEWOOD AL 01:02:2600:10:0501:02:2600:10:05
175252MEG DENSON29FHELENA AL 01:02:2800:10:0501:01:3000:09:56
176920MEREDITH NUNLEY24FBIRMINGHAM AL 01:02:2900:10:0501:01:5000:09:59
177275STEPHANIE ENSMINGER36FPELHAM AL 01:02:3000:10:0501:01:5800:10:00
1781129MELANIE EDWARDS20FARGO AL 01:02:3200:10:0601:02:3200:10:06
179489SUSAN LINES49FINDIAN SPRINGS AL 01:02:3300:10:0601:02:0600:10:01
180473KATHRYN LAVENDER45FBIRMINGHAM AL 01:02:3500:10:0601:01:5000:09:59
181414AMANDA JACKSON29FLEEDS AL 01:02:4700:10:0801:02:0000:10:00
182990DENISE OWEN34FMOODY AL 01:02:5400:10:0901:02:1800:10:03
1831053ERIN MEACHAM25FBIRMINGHAM AL 01:02:5600:10:1001:02:1400:10:03
1841045CAROLINE KING24FBIRMINGHAM AL 01:02:5700:10:1001:02:1500:10:03
185219LARONDA CORRIN45FBIRMINGHAM AL 01:02:5800:10:1001:02:3900:10:07
PlaceBibNAMEAgeSexCITY/STATETeamNameGunTimeGunPaceTagTimeTagPace
1861055JENNIFER MORPHEW37FBIRMINGHAM AL 01:03:0100:10:1001:02:3000:10:05
187930ERIN SEARSON32FBIRMINGHAM AL 01:03:0200:10:1001:02:4100:10:07
188812JANET WATKINS58FBIRMINGHAM AL 01:03:0300:10:1101:02:0200:10:01
189195APRIL CLOUD43FODENVILLE AL 01:03:1000:10:1201:02:2000:10:04
1901000CHRISTEL SANCHEZ30FMOODY AL 01:03:1500:10:1301:02:3900:10:07
191968RAYNA DYCK34FHOMEWOOD AL 01:03:2900:10:1501:02:4500:10:08
1921083SEASON HILL41FVESTAVIA AL 01:03:3200:10:1501:02:4600:10:08
193126ERIN BRISS26FCHATTANOOGA TN 01:03:4100:10:1701:02:4200:10:07
194350BROOKIE HARBISON44FALABASTER AL 01:03:5100:10:1801:03:2700:10:14
195400BETH HOUSE42FMONTEVALLO AL 01:03:5200:10:1801:03:2700:10:14
196825AMANDA WELLS27FBIRMINGHAM AL 01:03:5900:10:2001:03:1200:10:12
1971108ALLI NATIONS32FHOOVER AL 01:04:0400:10:2001:03:0500:10:11
198882KRISTI COATS21FBIRMINGHAM AL 01:04:1600:10:2201:03:5400:10:19
199125SARAH BRILEY20FHELENA AL 01:04:1600:10:2201:03:4800:10:18
200328NIKKI GRABELDINGER47FMAYLENE ALCADENCE RUN COACHING WHIT01:04:1800:10:2301:03:4200:10:17
201293HANNAH FOUST26FBIRMINGHAM ALCADENCE RUN COACHING WHIT01:04:1900:10:2301:03:4200:10:17
202310KATIE GIBSON31FBIRMINGHAM AL 01:04:2100:10:2301:03:2500:10:14
203416JESSICA JASIEN30FBIRMINGHAM AL 01:04:2400:10:2401:03:2300:10:14
204533JENNIFER MCCORMICK35FBIRMINGHAM AL 01:04:2400:10:2401:04:0800:10:21
205792MARY BETH VINES26FUNITED STATES AL 01:04:2700:10:2401:03:5800:10:20
206858MARY WOODRUFF26FBIRMINGHAM AL 01:04:2800:10:2401:04:0400:10:20
207915SARA CHANDLER MITCHELL18FBIRMINGHAM AL 01:04:2900:10:2401:03:4800:10:18
208919SARAH WINSTON NATHAN17FBIRMINGHAM AL 01:04:2900:10:2401:03:4700:10:18
209914JENNIFER MITCHELL46FBIRMINGHAM AL 01:04:3000:10:2501:03:4800:10:18
210202LESLIE COKER47FPINSON AL 01:04:3200:10:2501:03:5000:10:18
2111070MEREDITH VINSON45FHOOVER AL 01:04:4300:10:2701:03:5400:10:19
212751LAUREN TACKETT38FBIRMINGHAM AL 01:04:4600:10:2701:03:5600:10:19
213460CHRYSTAL KRACKE40FVESTAVIA AL 01:04:4700:10:2701:04:0600:10:21
214853AMY WILSON31FBIRMINGHAM AL 01:04:5600:10:2901:04:4100:10:26
215496JANIE LOGAN27FBIRMINGHAM AL 01:04:5600:10:2901:04:0000:10:20
216397WHITTLEY HOPPER26FCALERA AL 01:05:0300:10:3001:04:1400:10:22
PlaceBibNAMEAgeSexCITY/STATETeamNameGunTimeGunPaceTagTimeTagPace
21755SHANNON AMMONS44FBIRMINGHAM AL 01:05:0500:10:3001:04:4200:10:26
218347CAITLIN HALPERIN21FBIRMINGHAM AL 01:05:1100:10:3101:04:1700:10:23
219637BROOKE POIRIER43FLEEDS AL 01:05:1700:10:3201:04:2600:10:24
220962LAUREN COPELAND23FBIRMINGHAM AL 01:05:3300:10:3501:04:4700:10:27
221278CAROLINE ETHERIEDGE39FWARRIOR AL 01:05:3800:10:3601:05:0200:10:30
222937KACY TUCKER26FMOUNT OLIVE AL 01:05:3900:10:3601:04:5900:10:29
223678SARA ROWE27FMOUNT OLIVE AL 01:05:3900:10:3601:04:5900:10:29
224822KELLY WEEKLEY31FBIRMINGHAM AL 01:05:4200:10:3601:05:1400:10:32
225311AMY GIBSON31FBIRMINGHAM AL 01:05:4300:10:3601:04:4400:10:27
226680MELANIE RUBERY41FBIRMINGHAM AL 01:05:4300:10:3601:05:1600:10:32
2271011BETH WOLFE36FBIRMINGHAM AL 01:05:5100:10:3801:05:3500:10:35
228675CINDI ROUTMAN58FBIRMINGHAM AL 01:05:5600:10:3801:05:1200:10:31
229214SUSAN COOK44FODENVILLE AL 01:05:5700:10:3901:05:3200:10:35
2301106ADRIENNE CARTER39FBIRMINGHAM AL 01:05:5900:10:3901:04:5800:10:29
231603KRISTEN OSBORNE30FBIRMINGHAM AL 01:06:0200:10:3901:04:5900:10:29
232517ABIGAIL MARTIN23FBIRMINGHAM AL 01:06:0500:10:4001:05:0300:10:30
233697KAYE SHARP45FBIRMINGHAM AL 01:06:0800:10:4001:05:5400:10:38
234626SCOUT PHILLIPS15FBIRMINGHAM AL 01:06:1300:10:4101:05:5700:10:39
235592JESSICA NICHOLS25FBIRMINGHAM AL 01:06:1900:10:4201:06:0300:10:40
2361165KATELYN STANIER27FHOMEWOOD AL 01:06:2100:10:4201:06:0000:10:39
237734EMILY STANLEY29FBIRMINGHAM AL 01:06:2200:10:4301:05:2400:10:33
23883SAMM BARTEE50FBIRMINGHAM AL 01:06:2600:10:4301:05:3600:10:35
239696SARAH SHAFFIELD31FHOMEWOOD AL 01:06:3600:10:4501:05:5800:10:39
240425EMILY JOHNSON26FBIRMINGHAM AL 01:06:4400:10:4601:06:0800:10:40
241748ASHTON SUTPHIN29FBIRMINGHAM AL 01:06:5100:10:4701:06:1000:10:41
242953JESSICA CANNON29FHOOVER AL 01:06:5300:10:4801:06:1200:10:41
243271CAROL EDWARDS29FNOTASULGA AL 01:06:5800:10:4801:06:0900:10:41
244200CHERYL COFIELD43FALABASTER AL 01:06:5800:10:4901:06:4500:10:46
24560KRISTINA ANDERSON46FCUMMING GA 01:07:0000:10:4901:06:3000:10:44
246745MARIE STOWERS50FCUMMING GA 01:07:1800:10:5201:06:4900:10:47
247681CATHY RUMBLE56FAIKEN SC 01:07:2700:10:5301:07:0400:10:49
PlaceBibNAMEAgeSexCITY/STATETeamNameGunTimeGunPaceTagTimeTagPace
24866KELSIE AUSTIN24FFLEMING ISLAND FL 01:07:3300:10:5401:07:1000:10:50
24942DANA ACHARYA35FBIRMINGHAM AL 01:07:3500:10:5401:07:1300:10:51
250294KATIE FOWLER19FBIRMINGHAM AL 01:07:4100:10:5501:06:5900:10:49
2511015TRISTA WOLVERTON26FBIRMINGHAM AL 01:07:5200:10:5701:06:5100:10:47
252749SUSAN SWAGLER51FMOUNTAIN BROOK AL 01:08:0500:10:5901:07:3300:10:54
253978KELLI JONES31FMCCALLA AL 01:08:0700:11:0001:07:2700:10:53
254274JANE EMMERTH44FBIRMINGHAM AL 01:08:2200:11:0201:07:3400:10:54
255229JILL CROWSON36FTRUSSVILLE AL 01:08:3400:11:0401:07:5100:10:57
25685MELLIE BASSETT30FBIRMINGHAM AL 01:08:3500:11:0401:07:3600:10:55
257875JULIE BOSCHE37FBIRMINGHAM AL 01:08:4100:11:0501:08:1600:11:01
258461KAYLEY KRUEGER27FBIRMINGHAM AL 01:08:4200:11:0501:07:5900:10:58
259354BARBARA HARRINGTON44FBIRMINGHAM AL 01:08:5900:11:0801:08:0000:10:58
260160JAMIE CARNES33FMORRIS AL 01:08:5900:11:0801:08:1700:11:01
261641BRITTINY POWELL27FPLEASANT GROVE AL 01:09:0000:11:0801:08:3100:11:03
262820SARAH WEAVER37FBIRMINGHAM AL 01:09:0200:11:0801:07:5800:10:58
263424LISA JOHNSON34FBIRMINGHAM AL 01:09:1200:11:1001:08:1300:11:01
264527ERIN MCATEE49FBIRMINGHAM AL 01:09:1500:11:1101:08:1700:11:01
2651159SANDRA GILLEY54FBIRMINGHAM AL 01:09:2900:11:1301:08:3600:11:04
266380KIMBERLY HILL40FLEEDS AL 01:09:3500:11:1401:08:5200:11:07
267184ALYSSA CLAY30FODENVILLE AL 01:09:4200:11:1501:09:1100:11:10
268544LISA SECOR36FBIRMINGHAM AL 01:09:4800:11:1601:09:1800:11:11
269108TOMIE ANN BOACKLE44FWARRIOR AL 01:09:5200:11:1701:08:5500:11:07
2701169MARGARET NICHOLAS56FBIRMINGHAM AL 01:09:5700:11:1701:09:0900:11:10
271852JOHNNA WILLIS32FHARTSELLE AL 01:09:5800:11:1801:09:3800:11:14
272939KIM TYLER51FBIRMINGHAM AL 01:09:5800:11:1801:09:3200:11:13
2731101LAWSON GATLIN23FBIRMINGHAM AL 01:10:0000:11:1801:09:1700:11:11
274971CANDACE HAAKE24FBIRMINGHAM AL 01:10:0000:11:1801:09:1700:11:11
275714TERI SMITH61FFULTONDALE AL 01:10:0000:11:1801:09:3800:11:14
276779EMILY TURNBOW41FBIRMINGHAM AL 01:10:0600:11:1901:09:3100:11:13
277579CHRISTIE MURCHISON27FBIRMINGHAM AL 01:10:1500:11:2001:09:2100:11:12
278509BRYNNE MACCANN36FSTERRETT AL 01:10:1500:11:2001:09:2100:11:12
PlaceBibNAMEAgeSexCITY/STATETeamNameGunTimeGunPaceTagTimeTagPace
2791141EMILY YORK33FALEXANDRIA VA 01:10:1700:11:2101:10:1700:11:21
280907ELIZABETH LOWDER26FBIRMINGHAM AL 01:10:2000:11:2101:09:4400:11:15
281850BROOKE WILLIAMSON28FLINEVILLE AL 01:10:2400:11:2201:09:3000:11:13
282599SHANNON O'GUIN29FHELENA AL 01:10:2500:11:2201:09:3600:11:14
283315DIANE GIDDENS56FLINEVILLE AL 01:10:2500:11:2201:09:3200:11:13
284480GAIL LEE63FHOOVER AL 01:10:2600:11:2201:09:3900:11:14
285418KYLIE JERNIGAN36FHOOVER AL 01:10:3400:11:2301:09:4500:11:15
286316WENDY HASSINGER46FBIRMINGHAM AL 01:10:3900:11:2401:10:3900:11:24
287613JANICE PATTON36FBIRMINGHAM AL 01:10:4600:11:2501:10:4600:11:25
288396JAMIE HOPPER40FBIRMINGHAM AL 01:10:4600:11:2501:10:0100:11:18
289445JENNIFER KELLEY41FHELENA AL 01:11:0000:11:2701:09:5700:11:17
290491KATIE LITTS27FBIRMINGHAM AL 01:11:0900:11:2901:10:0900:11:19
291707TRICIA SIMPSON45FHOOVER AL 01:11:2100:11:3101:10:4600:11:25
292902KRISTEN JOHNSTON40FHOMEWOOD AL 01:11:2200:11:3101:10:4700:11:25
2931171ADRYENNE HOFFLER27FBIRMINGHAM AL 01:11:2200:11:3101:10:1800:11:21
294683KATELYN SAFFOLD24FATLANTA GA 01:11:3000:11:3201:10:3500:11:23
295838MORGAN WHITT12FBIRMINGHAM AL 01:11:3200:11:3301:10:4700:11:25
2961037CATHERINE GOUDREAU24FBIRMINGHAM AL 01:11:5400:11:3601:10:5500:11:27
297230KRISTI CRUMP41FIRONDALE AL 01:12:1000:11:3901:11:0400:11:28
298447KAELA KELLY21FBIRMINGHAM AL 01:12:1500:11:4001:11:1400:11:30
299484KOREN LEE32FHOOVER AL 01:12:2100:11:4101:11:5700:11:37
3001094ASHLEIGH SILAS28FODENVILLE AL 01:12:2100:11:4101:11:4400:11:35
3011086SARAH CARTER34FBIRMINGHAM AL 01:12:2800:11:4201:11:3100:11:32
3021092NICHOLE BJORNSTAD SMITH27FBIRMINGHAM AL 01:12:2800:11:4201:11:4400:11:35
30358TAMPIA ANDERSON51FBIRMINGHAM AL 01:12:4300:11:4401:12:0900:11:39
304300NICOLE FROST25FBIRMINGHAM AL 01:12:5200:11:4601:12:5200:11:46
30554ANNA ALTZSMITH34FBIRMINGHAM AL 01:12:5900:11:4701:12:1900:11:40
306182KELSEY CLARK25FHARVEST AL 01:13:1700:11:5001:12:3400:11:43
307694MITZI SHAFFIELD43FVESTAVIA AL 01:13:3300:11:5201:12:2600:11:41
308621LEXY PETRY37FBIRMINGHAM AL 01:13:3700:11:5301:13:0900:11:48
309469GLENDA LAMMERS55FCARROLLTON AL 01:13:4100:11:5301:12:4800:11:45
PlaceBibNAMEAgeSexCITY/STATETeamNameGunTimeGunPaceTagTimeTagPace
310551CAROL MILLS45FHOMEWOOD AL 01:13:4300:11:5401:12:4600:11:45
311801CASEY WALLACE25FBIRMINGHAM AL 01:13:5100:11:5501:13:2900:11:51
312554ABIGAIL MISSILDINE22FDECATUR AL 01:14:1200:11:5901:13:4500:11:54
3131022KRISTIN BARTON20FBIRMINGHAM AL 01:14:1300:11:5901:13:3900:11:53
314180SUE CLARK53FHARVEST AL 01:14:1400:11:5901:14:1400:11:59
315758JENNIFER THOMAS36FHELENA AL 01:14:1500:11:5901:13:2500:11:51
3161027HEATHER CHARLTON40FWARRIOR AL 01:14:1700:11:5901:13:1800:11:50
317839GINA WHITTEN43FONEONTA AL 01:14:2600:12:0101:14:0900:11:58
318558MADELEINE MITCHELL17FALBERTVILLE AL 01:14:3000:12:0101:13:3300:11:52
319557MARY CATHERINE MITCHELL20FALBERTVILLE AL 01:14:3000:12:0101:14:3000:12:01
320917SANDY MORRISON49FCALERA AL 01:14:3700:12:0301:14:0000:11:57
321556JOYCE MITCHELL47FALBERTVILLE AL 01:15:0900:12:0801:14:1300:11:59
322232EMMAGENE CRUNK58FHOOVER AL 01:15:1000:12:0801:14:2300:12:00
323866JEN ZAPPA40FBIRMINGHAM AL 01:15:1700:12:0901:14:3000:12:01
324504JODI LUNSFORD42FBESSEMER AL 01:15:3600:12:1201:15:0700:12:07
325308SHIRLEY GIBBS49FBIRMINGHAM AL 01:15:5000:12:1401:14:4500:12:04
326817BRANDY WAYMAN32FAUBURN AL 01:15:5500:12:1501:14:5000:12:05
327369MEGHAN HENLEY35FSYLACAUGA AL 01:15:5500:12:1501:14:5100:12:05
328984ANNA MANASCO35FBIRMINGHAM AL 01:15:5800:12:1601:15:1300:12:08
329359KATIE HASKETT32FTUSCALOOSA AL 01:16:0000:12:1601:15:3600:12:12
330176STACY CHIOTAKIS49FCHELSEA AL 01:16:0100:12:1601:15:3500:12:12
331433SARAH JONES30FBIRMINGHAM AL 01:16:0400:12:1701:15:0700:12:07
332560AMANDA MOHAIMANY-APONTE28FBIRMINGHAM AL 01:16:0800:12:1701:15:5100:12:14
333790BETHANY VENABLE25FHOOVER AL 01:16:1300:12:1801:15:3500:12:12
334591DAILEY NETTLES21FBIRMINGHAM AL 01:16:1700:12:1901:15:3500:12:12
335759EMILY THOMAS26FGADSDEN AL 01:16:2800:12:2001:15:3500:12:12
336938LISA TULLOSS45FGARDENDALE AL 01:16:3500:12:2201:16:1100:12:18
337132AUDREY BROWN40FBIRMINGHAM AL 01:16:5100:12:2401:16:0200:12:16
338630KRYSTAL PINO32FBIRMINGHAM AL 01:16:5100:12:2401:16:1100:12:18
339981MIKO KULOVITZ32FBIRMINGHAM AL 01:16:5200:12:2401:16:5200:12:24
340795DEB WAKEFIELD26FHOOVER AL 01:17:1900:12:2901:16:5500:12:25
PlaceBibNAMEAgeSexCITY/STATETeamNameGunTimeGunPaceTagTimeTagPace
341597BETH ODOM52FHOOVER AL 01:17:2900:12:3001:16:4100:12:23
342699TARA SHEA41FBIRMINGHAM AL 01:17:3000:12:3001:16:3600:12:22
343959ANNA COLVIN38FBIRMINGHAM AL 01:17:3000:12:3001:16:3700:12:22
344187DARCIE CLEMONS35FGARDENDALE AL 01:17:3200:12:3101:17:1300:12:28
345139CHERYL BRYSON52FBIRMINGHAM AL 01:17:5600:12:3501:17:4700:12:33
346602KEITH O'NEAL36FBIRMINGHAM AL 01:18:0800:12:3701:17:0700:12:27
347601VANESSA O'NEAL37FBIRMINGHAM AL 01:18:0900:12:3701:18:0900:12:37
348507KIMBERLEY LYLES39FCALERA AL 01:18:1400:12:3801:17:5400:12:34
349185JENNIFER CLAYTON33FCHELSEA AL 01:18:1500:12:3801:17:2700:12:30
3501099BETH STOKES39FHELENA AL 01:18:1900:12:3801:17:1700:12:28
351360JERRI HASLEM52FHOOVER AL 01:18:2200:12:3901:18:2200:12:39
3521091ELIZABETH TILEY37FVESTAVIA AL 01:18:2500:12:3901:17:3800:12:32
353408TARA HULGAN29FBIRMINGHAM AL 01:18:2500:12:3901:17:3900:12:32
354623TAN PHILLIPS48FBIRMINGHAM AL 01:18:2600:12:3901:17:5900:12:35
355739JAN STERLING62FBIRMINGHAM AL 01:18:3800:12:4101:17:5100:12:34
356767BEVERLY THORN62FTUSCALOOSA AL 01:18:5300:12:4401:18:0200:12:36
357178MARTHA CIRULNICK30FBIRMINGHAM AL 01:18:5600:12:4401:18:5600:12:44
358885MOLLY DESAI46FBIRMINGHAM AL 01:19:0100:12:4501:18:1600:12:38
359658AMY RICHARDS28FKIMBERLY AL 01:19:2700:12:4901:19:2700:12:49
360171TERESA CHANDLER65FBIRMINGHAM AL 01:19:3200:12:5001:18:4300:12:42
361903BETSY KRUEGER53FBIRMINGHAM AL 01:19:4900:12:5301:19:0600:12:46
362988STEPHANIE NICHOLSON45FBIRMINGHAM AL 01:19:5300:12:5301:19:1100:12:47
3631046CINDY KOSTELECKY48FBIRMINGHAM AK 01:20:3100:13:0001:19:5800:12:54
3641074KIM YARBORO49FBIRMINGHAM AL 01:21:1900:13:0701:20:2800:12:59
365314CARRIE GIBSON31FIRONDALE AL 01:22:2000:13:1701:21:1600:13:07
366672CHRISTY ROSS34FONEONTA ALVULCAN'S BUTTOCKS01:23:3000:13:2901:22:4200:13:21
367806HEATHER WARD33FHOOVER AL 01:23:4100:13:3001:23:0800:13:25
368570AMANDA MORRIS39FHELENA AL 01:23:4700:13:3101:23:1000:13:25
36992ANGELA BENNETT52FHOOVER AL 01:23:5700:13:3301:23:0500:13:24
3701100CONNIE GREEN41FHELENA AL 01:23:5800:13:3301:22:5600:13:23
371351AMANDA HARDEN37FPELHAM AL 01:24:0500:13:3401:23:4900:13:32
PlaceBibNAMEAgeSexCITY/STATETeamNameGunTimeGunPaceTagTimeTagPace
372101CYNTHIA BISHOP20FHUNTSVILLE AL 01:24:3400:13:3901:24:3400:13:39
373872KATHRYN APPLETON48FBIRMINGHAM AL 01:24:3700:13:3901:23:5100:13:32
3741090HOLLY COBLE35FBIRMINGHAM AL 01:24:3800:13:3901:23:5100:13:32
375225DAWN CRAWFORD43FSPRINGVILLE AL 01:24:4000:13:4001:24:2900:13:38
376813MARY ANN WATKINS50FGADSDEN AL 01:24:5400:13:4201:24:2500:13:37
377106CHRISTIE BLANKENSHIP40FJASPER AL 01:25:1700:13:4601:24:2500:13:37
378538KATHY MCKEE32FSPRINGVILLE AL 01:25:2700:13:4701:25:0300:13:43
379317ANNA GILES29FBIRMINGHAM AL 01:25:4000:13:4901:25:1700:13:46
380890AMANDA GILES29FBIRMINGHAM AL 01:25:4300:13:5001:25:2000:13:46
381405DONNA HUGGINS64FBIRMINGHAM AL 01:25:5500:13:5201:25:3900:13:49
382501MELISSA LOUDON43FBIRMINGHAM AL 01:26:2500:13:5701:25:5700:13:52
383183KELSEY CLAUSSEN24FOCEAN SPRINGS MS 01:27:0100:14:0201:27:0100:14:02
384677KATIE ROWAN32FBIRMINGHAM AL 01:27:1000:14:0401:26:1900:13:56
385411ALICIA IHNKEN45FEDGEWATER FL 01:27:5400:14:1101:26:4200:13:59
386702RYLAND SHERER8FONEONTA ALVULCAN'S BUTTOCKS01:28:0300:14:1301:27:1500:14:05
387167LAURA CHAATH28FBIRMINGHAM AL 01:28:2200:14:1601:27:2100:14:06
388482CANDICE LEE38FBIRMINGHAM AL 01:29:5600:14:3101:28:5300:14:21
3891127KATHY GIPSON44FHOOVER AL 01:30:1900:14:3501:29:5100:14:30
3901125KIMBERLY BIBB43FWARRIOR AL 01:30:2000:14:3501:29:5100:14:30
391329NOEL GRAHAM58FBIRMINGHAM AL 01:30:2200:14:3501:29:3100:14:27
392427SANDRA JONES62FBIRMINGHAM AL 01:30:2200:14:3501:29:3100:14:27
393635CHRISTINA POFF45FPELHAM AL 01:32:3000:14:5601:32:0300:14:51
394194JENNIFER CLOE45FBIRMINGHAM AL 01:32:5800:15:0001:32:5800:15:00
395764RONDA THOMPSON51FBIRMINGHAM AL 01:33:5400:15:0901:33:0900:15:02
396655CANDACE REESE40FBIRMINGHAM AL 01:34:0100:15:1001:32:5500:15:00
397528KIM MCCALL42FLEEDS AL 01:34:5500:15:1901:33:4500:15:08
398379RHONDA HILL46FPINSONPINSON AL 01:34:5500:15:1901:33:4600:15:08
399123LESLIE BRENT51FBIRMINGHAM AL 01:38:0400:15:4901:37:1200:15:41
400211LATISHA COLVIN39FMOBILE AL 01:40:1200:16:1001:39:4200:16:05
401234TASHA CUNNINGHAM39FGARDENDALE AL 01:40:3200:16:1301:39:2900:16:03
4021061KATIE RICHARDSON49FBIRMIBIRMINGHAMNGHAM A 01:43:3700:16:4301:42:2700:16:32
PlaceBibNAMEAgeSexCITY/STATETeamNameGunTimeGunPaceTagTimeTagPace
4031004BONNIE SMITH50FCHELSEA AL 01:43:3700:16:4301:42:2800:16:32
404377SUSAN HILL53FBIRMINGHAM AL 01:43:5000:16:4501:42:4100:16:34
40599MARJORIE BISHOP52FHUNTSVILLE AL 01:44:0100:16:4701:43:0600:16:38

** Results are for the private use of participants and are the Intellectual Property of Set Up Events. Unauthorized use of these results is prohibited.